FW4117 Weather Reports


time (UTC)temp
F
wind
direction
speed
knots
gust
knots
rain 1hr
in
rain 24hr
in
rain mn
in
humidity
%
barometer
mb
20210723150503 84 180 3.5 7.8 0.00 0.00 0.00 75 1019.5
20210723150003 84 191 3.5 7.8 0.00 0.00 0.00 76 1019.5
20210723145503 84 187 3.5 7.8 0.00 0.00 0.00 76 1019.5
20210723145004 83 145 3.5 9.6 0.00 0.00 0.00 77 1019.5
20210723144504 83 137 3.5 9.6 0.00 0.00 0.00 76 1019.7
20210723144003 83 169 3.5 8.7 0.00 0.00 0.00 76 1019.6
20210723143503 83 168 3.5 8.7 0.00 0.00 0.00 76 1019.6
20210723143003 83 159 3.5 8.7 0.00 0.00 0.00 77 1019.6
20210723142503 83 142 3.5 8.7 0.00 0.00 0.00 78 1019.7
20210723142003 82 140 3.5 10.4 0.00 0.00 0.00 78 1019.6
20210723141503 82 157 4.3 10.4 0.00 0.00 0.00 78 1019.6
20210723141003 82 155 3.5 8.7 0.00 0.00 0.00 78 1019.6
20210723140503 82 152 3.5 8.7 0.00 0.00 0.00 79 1019.5
20210723140003 82 161 3.5 8.7 0.00 0.00 0.00 80 1019.5
20210723135503 81 166 4.3 8.7 0.00 0.00 0.00 80 1019.4
20210723135003 81 160 3.5 7.8 0.00 0.00 0.00 80 1019.4
20210723134503 80 157 3.5 9.6 0.00 0.00 0.00 81 1019.3
20210723134003 80 160 2.6 9.6 0.00 0.00 0.00 81 1019.4
20210723133503 80 149 2.6 7.8 0.00 0.00 0.00 82 1019.2
20210723133004 79 144 3.5 8.7 0.00 0.00 0.00 83 1019.2
20210723132503 79 160 3.5 8.7 0.00 0.00 0.00 83 1019.1
20210723132003 79 155 2.6 8.7 0.00 0.00 0.00 83 1019.1
20210723131503 78 140 2.6 8.7 0.00 0.00 0.00 84 1019.2
20210723131003 78 161 2.6 6.1 0.00 0.00 0.00 84 1019.1
20210723130503 78 166 2.6 6.1 0.00 0.00 0.00 85 1018.9
20210723130003 78 166 2.6 5.2 0.00 0.00 0.00 85 1019.0
20210723125503 78 176 2.6 9.6 0.00 0.00 0.00 85 1019.0
20210723125003 77 169 3.5 9.6 0.00 0.00 0.00 85 1019.1
20210723124503 77 176 3.5 9.6 0.00 0.00 0.00 85 1019.0
20210723124003 77 163 2.6 8.7 0.00 0.00 0.00 86 1018.9
20210723123503 77 150 2.6 8.7 0.00 0.00 0.00 86 1018.9
20210723123003 76 154 1.7 4.3 0.00 0.00 0.00 86 1018.9
20210723122503 76 157 1.7 4.3 0.00 0.00 0.00 86 1018.8
20210723122003 76 166 1.7 4.3 0.00 0.00 0.00 86 1018.8
20210723121503 76 165 2.6 6.1 0.00 0.00 0.00 86 1018.7
20210723121003 76 164 2.6 6.1 0.00 0.00 0.00 86 1018.7
20210723120503 76 164 2.6 7.0 0.00 0.00 0.00 86 1018.7
20210723120003 76 158 1.7 7.0 0.00 0.00 0.00 86 1018.6
20210723115503 76 164 1.7 6.1 0.00 0.00 0.00 85 1018.6
20210723115003 76 185 2.6 6.1 0.00 0.00 0.00 85 1018.7
20210723114503 76 179 2.6 7.0 0.00 0.00 0.00 85 1018.8
20210723114003 76 160 2.6 7.8 0.00 0.00 0.00 85 1018.8
20210723113503 76 163 2.6 7.0 0.00 0.00 0.00 84 1018.7
20210723113003 76 160 2.6 7.8 0.00 0.00 0.00 84 1018.6
20210723112503 76 159 3.5 7.8 0.00 0.00 0.00 84 1018.7
20210723112003 76 158 2.6 10.4 0.00 0.00 0.00 84 1018.7
20210723111503 76 161 2.6 8.7 0.00 0.00 0.00 83 1018.9
20210723111004 76 150 1.7 5.2 0.00 0.00 0.00 83 1018.7
20210723110503 76 150 2.6 5.2 0.00 0.00 0.00 83 1018.7
20210723110003 76 161 1.7 5.2 0.00 0.00 0.00 82 1018.6
20210723105503 76 154 1.7 5.2 0.00 0.00 0.00 82 1018.6
20210723105003 76 151 1.7 6.1 0.00 0.00 0.00 82 1018.8
20210723104503 76 155 1.7 6.1 0.00 0.00 0.00 82 1018.7
20210723104003 76 151 1.7 6.1 0.00 0.00 0.00 81 1018.6
20210723103503 76 160 1.7 6.1 0.00 0.00 0.00 81 1018.6
20210723103003 76 154 1.7 4.3 0.00 0.00 0.00 81 1018.6
20210723102503 76 137 1.7 4.3 0.00 0.00 0.00 81 1018.7
20210723102003 76 163 1.7 4.3 0.00 0.00 0.00 81 1018.8
20210723101503 76 171 0.9 4.3 0.00 0.00 0.00 81 1018.7
20210723101003 77 132 1.7 3.5 0.00 0.00 0.00 81 1018.7
20210723100503 77 137 1.7 6.1 0.00 0.00 0.00 80 1018.6
20210723100003 77 145 1.7 6.1 0.00 0.00 0.00 80 1018.6
20210723095503 77 149 1.7 5.2 0.00 0.00 0.00 79 1018.6
20210723095003 77 173 1.7 5.2 0.00 0.00 0.00 80 1018.6
20210723094503 77 161 1.7 7.0 0.00 0.00 0.00 79 1018.6
20210723094003 77 152 1.7 7.0 0.00 0.00 0.00 79 1018.5
20210723093503 77 146 1.7 4.3 0.00 0.00 0.00 79 1018.5
20210723093003 77 141 1.7 5.2 0.00 0.00 0.00 79 1018.3
20210723092503 77 147 2.6 8.7 0.00 0.00 0.00 79 1018.3
20210723092004 77 150 1.7 8.7 0.00 0.00 0.00 80 1018.3
20210723091503 77 172 1.7 3.5 0.00 0.00 0.00 81 1018.3
20210723091003 77 179 1.7 3.5 0.00 0.00 0.00 80 1018.4
20210723090503 78 143 1.7 3.5 0.00 0.00 0.00 80 1018.3
20210723090003 78 131 1.7 3.5 0.00 0.00 0.00 79 1018.2
20210723085503 78 152 1.7 4.3 0.00 0.00 0.00 79 1018.2
20210723085003 78 161 1.7 5.2 0.00 0.00 0.00 79 1018.1
20210723084503 77 154 1.7 5.2 0.00 0.00 0.00 79 1018.3
20210723084003 77 150 0.9 3.5 0.00 0.00 0.00 80 1018.3
20210723083504 78 139 0.9 2.6 0.00 0.00 0.00 81 1018.3
20210723083004 78 133 1.7 6.1 0.00 0.00 0.00 80 1018.3
20210723082504 78 139 1.7 6.1 0.00 0.00 0.00 79 1018.3
20210723082003 78 143 0.9 3.5 0.00 0.00 0.00 78 1018.4
20210723081504 78 146 0.9 3.5 0.00 0.00 0.00 78 1018.3
20210723081004 78 154 0.9 3.5 0.00 0.00 0.00 79 1018.3
20210723080504 79 149 1.7 4.3 0.00 0.00 0.00 79 1018.3
20210723080003 79 141 1.7 7.8 0.00 0.00 0.00 78 1018.4
20210723075504 79 134 0.9 3.5 0.00 0.00 0.00 78 1018.3
20210723075003 79 150 0.9 3.5 0.00 0.00 0.00 77 1018.3
20210723074504 79 167 1.7 5.2 0.00 0.00 0.00 77 1018.3
20210723074004 79 164 1.7 5.2 0.00 0.00 0.00 77 1018.2
20210723073504 79 155 1.7 4.3 0.00 0.00 0.00 77 1018.2
20210723073004 79 147 1.7 4.3 0.00 0.00 0.00 77 1018.2
20210723072503 80 144 1.7 6.1 0.00 0.00 0.00 77 1018.2
20210723072005 80 139 1.7 6.1 0.00 0.00 0.00 77 1018.2
20210723071504 80 148 2.6 7.0 0.00 0.00 0.00 77 1018.1
20210723071003 80 150 2.6 7.0 0.00 0.00 0.00 76 1018.0
20210723070504 80 140 2.6 7.0 0.00 0.00 0.00 76 1018.1
20210723070004 80 134 2.6 7.0 0.00 0.00 0.00 75 1018.1
20210723065503 80 143 1.7 5.2 0.00 0.00 0.00 75 1018.0
20210723065003 80 145 0.9 4.3 0.00 0.00 0.00 75 1017.9
20210723064504 80 111 1.7 2.6 0.00 0.00 0.00 75 1018.0
20210723064004 81 103 1.7 3.5 0.00 0.00 0.00 75 1018.1
20210723063504 81 154 1.7 4.3 0.00 0.00 0.00 74 1017.9
20210723063004 81 182 1.7 5.2 0.00 0.00 0.00 74 1017.9
20210723062504 81 185 1.7 5.2 0.00 0.00 0.00 74 1017.8
20210723062005 81 159 1.7 3.5 0.00 0.00 0.00 74 1017.9
20210723061503 81 153 1.7 3.5 0.00 0.00 0.00 74 1017.9
20210723061004 82 153 1.7 4.3 0.00 0.00 0.00 74 1017.8
20210723060504 82 157 1.7 4.3 0.00 0.00 0.00 74 1017.8
20210723060003 82 132 1.7 4.3 0.00 0.00 0.00 73 1017.8
20210723055504 82 135 1.7 5.2 0.00 0.00 0.00 73 1017.9
20210723055003 82 154 1.7 5.2 0.00 0.00 0.00 73 1017.9
20210723054504 82 153 2.6 6.1 0.00 0.00 0.00 73 1017.8
20210723054003 82 146 2.6 6.1 0.00 0.00 0.00 72 1017.8
20210723053503 82 147 2.6 6.1 0.00 0.00 0.00 72 1017.8
20210723053003 82 143 2.6 6.1 0.00 0.00 0.00 72 1017.8
20210723052503 82 127 2.6 6.1 0.00 0.00 0.00 72 1017.9
20210723052003 83 130 2.6 7.0 0.00 0.00 0.00 71 1017.8
20210723051504 83 133 2.6 7.0 0.00 0.00 0.00 71 1017.8
20210723051003 83 131 2.6 6.1 0.00 0.00 0.00 70 1017.9
20210723050503 83 126 2.6 6.1 0.00 0.00 0.00 70 1017.9
20210723050004 84 121 2.6 7.0 0.00 0.00 0.00 69 1017.8
20210723045503 84 119 3.5 9.6 0.00 0.00 0.00 69 1017.9
20210723045003 84 119 3.5 9.6 0.00 0.00 0.00 69 1017.9
20210723044503 84 127 3.5 9.6 0.00 0.00 0.00 69 1017.9
20210723044003 84 136 2.6 8.7 0.00 0.00 0.00 69 1017.8
20210723043503 84 132 1.7 7.0 0.00 0.00 0.00 69 1017.9
20210723043003 84 121 1.7 3.5 0.00 0.00 0.00 69 1017.9
20210723042503 84 123 1.7 3.5 0.00 0.00 0.00 69 1018.0
20210723042003 84 122 1.7 4.3 0.00 0.00 0.00 69 1017.9
20210723041504 84 122 1.7 4.3 0.00 0.00 0.00 68 1017.8
20210723041003 85 126 2.6 6.1 0.00 0.00 0.00 68 1017.8
20210723040503 85 125 2.6 7.0 0.00 0.00 0.00 67 1017.8
20210723040003 85 124 2.6 7.0 0.00 0.00 0.00 67 1017.7
20210723035503 85 129 1.7 6.1 0.00 0.00 0.00 67 1017.7
20210723035003 85 131 1.7 6.1 0.00 0.00 0.00 66 1017.8
20210723034503 85 129 1.7 6.1 0.00 0.00 0.00 66 1017.8
20210723034003 85 129 2.6 6.1 0.00 0.00 0.00 66 1017.8
20210723033503 85 126 2.6 7.0 0.00 0.00 0.00 65 1017.6
20210723033003 85 122 2.6 8.7 0.00 0.00 0.00 65 1017.6
20210723032503 86 120 2.6 6.1 0.00 0.00 0.00 65 1017.6
20210723032004 86 114 2.6 7.0 0.00 0.00 0.00 64 1017.7
20210723031503 85 110 1.7 7.0 0.00 0.00 0.00 64 1017.5
20210723031003 85 112 0.9 6.1 0.00 0.00 0.00 64 1017.6
20210723030503 85 119 0.9 2.6 0.00 0.00 0.00 63 1017.5
20210723030003 86 128 0.9 2.6 0.00 0.00 0.00 63 1017.4
20210723025503 86 128 1.7 2.6 0.00 0.00 0.00 63 1017.5
20210723025003 86 130 1.7 3.5 0.00 0.00 0.00 63 1017.4
20210723024503 86 134 1.7 3.5 0.00 0.00 0.00 62 1017.3
20210723024003 86 130 0.9 2.6 0.00 0.00 0.00 62 1017.4
20210723023503 86 129 0.9 2.6 0.00 0.00 0.00 61 1017.3
20210723023003 86 128 1.7 2.6 0.00 0.00 0.00 61 1017.2
20210723022503 87 127 1.7 3.5 0.00 0.00 0.00 60 1017.3
20210723022003 87 129 1.7 5.2 0.00 0.00 0.00 60 1017.1
20210723021503 87 129 2.6 7.0 0.00 0.00 0.00 59 1017.1
20210723021003 87 122 2.6 7.0 0.00 0.00 0.00 59 1017.0
20210723020503 87 121 2.6 6.1 0.00 0.00 0.00 59 1016.9
20210723020003 88 123 2.6 6.1 0.00 0.00 0.00 59 1016.9
20210723015503 88 124 2.6 6.1 0.00 0.00 0.00 59 1016.9
20210723015003 88 127 2.6 7.0 0.00 0.00 0.00 59 1016.8
20210723014504 88 125 2.6 7.0 0.00 0.00 0.00 58 1016.8
20210723014003 88 126 2.6 7.0 0.00 0.00 0.00 58 1016.8
20210723013503 88 125 2.6 7.0 0.00 0.00 0.00 57 1016.7
20210723013003 89 119 2.6 8.7 0.00 0.00 0.00 57 1016.6
20210723012503 89 123 2.6 8.7 0.00 0.00 0.00 57 1016.7
20210723012003 89 128 2.6 7.8 0.00 0.00 0.00 57 1016.7
20210723011503 89 127 3.5 7.8 0.00 0.00 0.00 56 1016.6
20210723011003 90 126 3.5 8.7 0.00 0.00 0.00 56 1016.7
20210723010503 90 122 3.5 7.0 0.00 0.00 0.00 56 1016.8
20210723010003 90 126 2.6 7.0 0.00 0.00 0.00 56 1016.8
20210723005503 90 128 2.6 6.1 0.00 0.00 0.00 56 1016.6
20210723005004 90 125 2.6 6.1 0.00 0.00 0.00 55 1016.5
20210723004503 90 121 2.6 7.8 0.00 0.00 0.00 54 1016.6
20210723004004 90 120 3.5 7.8 0.00 0.00 0.00 54 1016.5
20210723003504 91 119 2.6 7.0 0.00 0.00 0.00 52 1016.4
20210723003003 91 121 2.6 7.0 0.00 0.00 0.00 52 1016.4
20210723002503 91 125 2.6 7.8 0.00 0.00 0.00 51 1016.3
20210723002003 91 123 2.6 7.8 0.00 0.00 0.00 51 1016.1
20210723001503 91 122 2.6 6.1 0.00 0.00 0.00 52 1016.2
20210723001003 91 124 2.6 6.1 0.00 0.00 0.00 52 1016.0
20210723000503 91 127 2.6 7.0 0.00 0.00 0.00 52 1016.1
20210723000003 92 126 2.6 7.0 0.00 0.00 0.00 52 1016.1
20210722235503 92 122 2.6 7.0 0.00 0.00 0.00 51 1016.1
20210722235003 92 124 2.6 6.1 0.00 0.00 0.00 52 1016.1
20210722234503 92 102 1.7 6.1 0.00 0.00 0.00 51 1016.1
20210722234003 93 70 1.7 3.5 0.00 0.00 0.00 52 1016.1
20210722233504 93 100 1.7 3.5 0.00 0.00 0.00 51 1016.2
20210722233004 93 135 1.7 3.5 0.00 0.00 0.00 50 1016.2
20210722232504 93 138 1.7 4.3 0.00 0.00 0.00 49 1016.2
20210722232004 92 124 1.7 4.3 0.00 0.00 0.00 50 1016.2
20210722231504 92 121 1.7 5.2 0.00 0.00 0.00 50 1016.3
20210722231004 92 129 1.7 6.1 0.00 0.00 0.00 49 1016.3
20210722230503 92 133 1.7 6.1 0.00 0.00 0.00 49 1016.2
20210722230004 93 129 1.7 7.8 0.00 0.00 0.00 49 1016.2
20210722225503 93 125 1.7 3.5 0.00 0.00 0.00 50 1016.3
20210722225004 92 123 1.7 3.5 0.00 0.00 0.00 51 1016.4
20210722224503 92 121 1.7 3.5 0.00 0.00 0.00 50 1016.5
20210722224003 93 146 1.7 4.3 0.00 0.00 0.00 49 1016.4
20210722223503 94 149 1.7 4.3 0.00 0.00 0.00 48 1016.5
20210722223003 94 129 1.7 5.2 0.00 0.00 0.00 48 1016.5
20210722222503 94 118 1.7 4.3 0.00 0.00 0.00 49 1016.5
20210722222003 94 129 1.7 4.3 0.00 0.00 0.00 48 1016.6
20210722221504 93 137 1.7 4.3 0.00 0.00 0.00 52 1016.6
20210722221004 92 138 1.7 3.5 0.00 0.00 0.00 53 1016.7
20210722220503 92 145 1.7 4.3 0.00 0.00 0.00 53 1016.7
20210722220004 92 147 1.7 4.3 0.00 0.00 0.00 53 1016.7
20210722215503 93 148 1.7 4.3 0.00 0.00 0.00 50 1016.8
20210722215003 94 131 1.7 4.3 0.00 0.00 0.00 50 1016.8
20210722214503 92 156 1.7 4.3 0.00 0.00 0.00 52 1016.9
20210722214003 92 163 1.7 4.3 0.00 0.00 0.00 50 1016.9
20210722213504 92 125 1.7 6.1 0.00 0.00 0.00 52 1017.0
20210722213004 93 127 1.7 6.1 0.00 0.00 0.00 50 1017.0
20210722212503 93 124 1.7 6.1 0.00 0.00 0.00 50 1017.0
20210722212003 93 106 2.6 7.0 0.00 0.00 0.00 52 1017.2
20210722211504 94 105 2.6 7.0 0.00 0.00 0.00 50 1017.3
20210722211003 94 126 2.6 6.1 0.00 0.00 0.00 51 1017.3
20210722210503 93 146 2.6 5.2 0.00 0.00 0.00 51 1017.2
20210722210004 93 122 2.6 6.1 0.00 0.00 0.00 50 1017.3
20210722205504 93 82 2.6 7.8 0.00 0.00 0.00 51 1017.4
20210722205003 93 80 1.7 7.8 0.00 0.00 0.00 51 1017.4
20210722204504 94 151 1.7 4.3 0.00 0.00 0.00 53 1017.4
20210722204003 94 148 2.6 6.1 0.00 0.00 0.00 51 1017.5
20210722203503 94 160 2.6 6.1 0.00 0.00 0.00 49 1017.6
20210722203004 94 129 2.6 6.1 0.00 0.00 0.00 50 1017.6
20210722202503 93 114 2.6 7.8 0.00 0.00 0.00 52 1017.7
20210722202003 93 124 2.6 7.8 0.00 0.00 0.00 51 1017.7
20210722201503 93 114 3.5 8.7 0.00 0.00 0.00 52 1017.7
20210722201003 93 109 2.6 7.8 0.00 0.00 0.00 50 1017.9
20210722200503 93 122 1.7 4.3 0.00 0.00 0.00 49 1017.9
20210722200003 93 135 1.7 5.2 0.00 0.00 0.00 52 1017.9
20210722195503 94 137 1.7 5.2 0.00 0.00 0.00 52 1018.1
20210722195003 93 130 1.7 7.0 0.00 0.00 0.00 50 1018.2
20210722194503 93 131 2.6 7.0 0.00 0.00 0.00 53 1018.2
20210722194003 92 129 2.6 5.2 0.00 0.00 0.00 50 1018.2
20210722193503 93 121 3.5 8.7 0.00 0.00 0.00 52 1018.4
20210722193003 94 117 2.6 8.7 0.00 0.00 0.00 51 1018.4
20210722192503 93 107 2.6 8.7 0.00 0.00 0.00 51 1018.5
20210722192003 93 102 1.7 6.1 0.00 0.00 0.00 52 1018.4
20210722191503 93 116 1.7 7.8 0.00 0.00 0.00 53 1018.5
20210722191003 93 101 2.6 7.8 0.00 0.00 0.00 53 1018.7
20210722190503 91 92 1.7 7.8 0.00 0.00 0.00 55 1018.7
20210722190003 91 81 1.7 5.2 0.00 0.00 0.00 56 1018.7
20210722185508 91 71 2.6 5.2 0.00 0.00 0.00 55 1018.7
20210722185003 92 72 2.6 5.2 0.00 0.00 0.00 55 1018.8
20210722184503 91 92 2.6 7.0 0.00 0.00 0.00 56 1018.8
20210722184004 92 123 2.6 7.8 0.00 0.00 0.00 53 1018.8
20210722183503 92 151 2.6 7.8 0.00 0.00 0.00 56 1018.9
20210722183003 92 137 2.6 8.7 0.00 0.00 0.00 57 1019.0
20210722182504 91 121 3.5 8.7 0.00 0.00 0.00 56 1019.0
20210722182003 92 117 2.6 6.1 0.00 0.00 0.00 55 1019.0
20210722181503 92 114 2.6 7.0 0.00 0.00 0.00 56 1019.2
20210722181003 91 116 3.5 8.7 0.00 0.00 0.00 56 1019.2
20210722180504 91 132 3.5 8.7 0.00 0.00 0.00 55 1019.2
20210722180003 91 129 2.6 7.0 0.00 0.00 0.00 55 1019.2
20210722175504 91 114 2.6 6.1 0.00 0.00 0.00 57 1019.3
20210722175004 91 90 3.5 7.0 0.00 0.00 0.00 57 1019.3
20210722174503 91 82 2.6 7.0 0.00 0.00 0.00 58 1019.4
20210722174003 90 98 2.6 7.0 0.00 0.00 0.00 59 1019.4
20210722173504 90 102 2.6 7.0 0.00 0.00 0.00 59 1019.4
20210722173004 90 108 2.6 7.0 0.00 0.00 0.00 59 1019.5
20210722172503 90 122 2.6 6.1 0.00 0.00 0.00 57 1019.6
20210722172003 90 112 2.6 6.1 0.00 0.00 0.00 60 1019.6
20210722171503 90 99 2.6 6.1 0.00 0.00 0.00 61 1019.7
20210722171003 90 104 1.7 7.0 0.00 0.00 0.00 58 1019.7
20210722170503 90 109 2.6 7.0 0.00 0.00 0.00 62 1019.8
20210722170003 89 120 2.6 6.1 0.00 0.00 0.00 60 1019.8
20210722165503 89 132 2.6 8.7 0.00 0.00 0.00 61 1019.8
20210722165003 88 140 2.6 7.0 0.00 0.00 0.00 63 1019.8
20210722164504 88 148 2.6 7.0 0.00 0.00 0.00 64 1019.8
20210722164003 88 150 2.6 7.8 0.00 0.00 0.00 65 1019.7
20210722163503 87 147 1.7 7.8 0.00 0.00 0.00 63 1019.7
20210722163004 88 149 1.7 5.2 0.00 0.00 0.00 62 1019.8
20210722162503 88 130 2.6 7.0 0.00 0.00 0.00 64 1019.9
20210722162004 88 117 2.6 7.0 0.00 0.00 0.00 63 1019.8
20210722161504 88 130 2.6 7.0 0.00 0.00 0.00 64 1019.7
20210722161004 88 136 1.7 6.1 0.00 0.00 0.00 64 1019.7
20210722160505 88 114 1.7 6.1 0.00 0.00 0.00 64 1019.9
20210722160003 88 113 1.7 5.2 0.00 0.00 0.00 66 1019.9
20210722155503 87 103 1.7 7.8 0.00 0.00 0.00 66 1019.9
20210722155003 87 100 1.7 4.3 0.00 0.00 0.00 66 1019.8
20210722154504 87 118 1.7 4.3 0.00 0.00 0.00 66 1019.8
20210722154003 87 119 2.6 7.0 0.00 0.00 0.00 66 1019.9
20210722153503 86 128 2.6 7.0 0.00 0.00 0.00 67 1019.8
20210722153003 86 137 1.7 6.1 0.00 0.00 0.00 66 1019.8
20210722152503 86 125 1.7 6.1 0.00 0.00 0.00 66 1019.8
20210722152003 85 119 1.7 3.5 0.00 0.00 0.00 67 1019.8
20210722151503 85 111 1.7 3.5 0.00 0.00 0.00 67 1019.8
20210722151003 85 90 1.7 3.5 0.00 0.00 0.00 68 1019.8